Regional Weather Roundup
Issued by NWS Jackson, KY

Home | Current Version | Previous Version | Text Only | Print | Product List | Glossary Off
Versions: 1 2 3 4 5 6 7 8 9 10 11 12 13 14 15 16 17 18 19 20 21 22 23 24 25 26 27 28 29 30 31 32 33 34 35 36 37 38 39 40 41 42 43 44 45 46 47 48 49 50

000
ASUS43 KJKL 061510
RWRJKL

EAST KENTUCKY HOURLY WEATHER ROUNDUP
NATIONAL WEATHER SERVICE JACKSON KY
1000 AM EST FRI MAR 06 2015

NOTE: "FAIR" INDICATES FEW OR NO CLOUDS BELOW 12,000 FEET WITH
NO SIGNIFICANT WEATHER AND/OR OBSTRUCTIONS TO VISIBILITY.

* THESE REPORTS ARE NOT UNDER NWS QUALITY CONTROL AND MAY NOT
  REPORT WEATHER SUCH AS PRECIPITATION AND FOG.

KYZ079-080-083-085-087-088-110-112-115-119-120-061600
...EASTERN KENTUCKY...

CITY           SKY/WX    TMP DP  RH WIND       PRES   REMARKS
JACKSON        SUNNY     17  13  84 VRB3      30.52R
LONDON         SUNNY     19  14  81 VRB3      30.53R
SOMERSET*      SUNNY     18  18 100 CALM      30.57S
MONTICELLO*    SUNNY     15  12  88 CALM      30.58S
MIDDLESBORO*   SUNNY     20  11  66 CALM      30.52F
HAZARD APT*    SUNNY     16  14  93 CALM      30.53R
BLACK MTN*       N/A     27  27 100 CALM        N/A
PIKEVILLE APT* SUNNY     16  12  86 CALM      30.49
BIG SANDY*     SUNNY     16  14  91 CALM      30.52R
MOREHEAD APT*  SUNNY     14   7  73 CALM      30.58R
$$

KYZ035-036-041-042-044-050-067-078-099-061600
...CENTRAL KENTUCKY...

CITY           SKY/WX    TMP DP  RH WIND       PRES   REMARKS
MT STERLING*   MOSUNNY  N/A N/A N/A SE5       30.57R
FLEMING/MASON* SUNNY    N/A N/A N/A CALM      30.58S
DANVILLE*      SUNNY     10   9  92 CALM      30.57R
RICHMOND*      SUNNY    N/A N/A N/A CALM      30.55S
LEXINGTON      SUNNY     14  10  84 S6        30.56R WCI   5
FRANKFORT      SUNNY     12   6  77 S7        30.57R WCI   1
$$

KYZ091>093-OHZ055-061-077-WVZ005-015-034-035-042-061600
...SOUTHERN OHIO/WEST VIRGINIA...

CITY           SKY/WX    TMP DP  RH WIND       PRES   REMARKS
COVINGTON      MOSUNNY   16   6  65 S6        30.56R WCI   7
COLUMBUS       MOSUNNY   14   4  64 SW7       30.56R WCI   4
DAYTON         MOSUNNY   17   8  67 S9        30.54R WCI   6
WILMINGTON     SUNNY     15   5  64 S7        30.54R WCI   5
HUNTINGTON     SUNNY     14  14 100 CALM      30.57R
CHARLESTON     MOSUNNY   16  13  88 CALM      30.53F
PINEVILLE*     MOSUNNY   21  13  72 MISG      30.50F
BECKLEY        SUNNY     15  13  91 CALM      30.39S
BLUEFIELD      SUNNY     17   6  62 E6        30.36S WCI   9
$$

VAZ002-007-008-TNZ017-027-036-066-071-061600
...SOUTHWEST VIRGINIA/EAST TENNESSEE...

CITY           SKY/WX    TMP DP  RH WIND       PRES   REMARKS
WISE*          SUNNY     19  10  68 CALM      30.39R
JONESVILLE*    SUNNY     19  10  68 CALM      30.51S
ABINGDON*      MOSUNNY   22  16  77 CALM      30.42S
BRISTOL        MOSUNNY   23  15  71 CALM      30.46S
KNOXVILLE      MOSUNNY   25  18  74 NE8       30.50R WCI  16
CROSSVILLE     SUNNY     21  13  71 N3        30.45R
NASHVILLE      SUNNY     20  11  68 CALM      30.59F
$$

...KEY TO REMARKS...
VSB - VISIBILITY IN MILES
WCI - WIND CHILL INDEX
HX  - HEAT INDEX

$$


USA.gov is the U.S. government's official web portal to all federal, state and local government web resources and services.